Location: Aula-Vintri
(58.3875°N, 22.4322°E)
Time: 02:00:03
(UTC+00:00)

H-2A R/B - Pass Details

Date: 13 October 2019
Orbit: 733 x 837 km, 98.3° (Epoch: 18 November)

Event Time Altitude Azimuth Distance (km) Brightness Sun altitude
Exits shadow 19:30:47 18° 229° (SW) 1,912 4.1 -30.4°
Maximum altitude 19:33:30 26° 271° (W) 1,558 4.0 -30.7°
Drops below altitude 10° 19:38:00 10° 327° (NNW) 2,440 5.4 -31.1°
Sets 19:40:48 0° 340° (NNW) 3,389 6.2 -31.4°
